Change the Weather History Date:

Wednesday, April 10, 2013

  Actual Average Record
Temperature  
Mean Temperature 78 °F -  
Max Temperature 84 °F 75 °F 89 °F (1977)
Min Temperature 73 °F 51 °F 32 °F (1973)
Cooling Degree Days 12    
Growing Degree Days 28 (Base 50)    
Moisture  
Dew Point 69 °F    
Average Humidity 74    
Maximum Humidity 84    
Minimum Humidity 62    
Precipitation  
Precipitation 0.00 in - - ()
Sea Level Pressure  
Sea Level Pressure 29.80 in    
Wind  
Wind Speed 10 mph (South)    
Max Wind Speed 17 mph    
Max Gust Speed 31 mph    
Visibility 10 miles    
Events      
Averages and records for this station are not official NWS values.
T = Trace of Precipitation, MM = Missing Value Source: NWS Daily Summary

Daily Weather History Graph

Daily Weather History Graph

Search for Another Location

Airport or City:

Trip Planner

Search our weather history database for the weather conditions in past years. The results will help you decide how hot, cold, wet, or windy it might be!

Date:

Astronomy

Apr. 10, 2013 Rise Set
Actual Time 6:46 AM CDT 7:34 PM CDT
Civil Twilight 6:21 AM CDT 7:59 PM CDT
Nautical Twilight 5:52 AM CDT 8:28 PM CDT
Astronomical Twilight 5:22 AM CDT 8:58 PM CDT
Moon 6:45 AM CDT (4/10) 8:06 PM CDT (4/10)
Length of Visible Light 13h 37m
Length of Day
12h 48m
New Moon, 0% of the Moon is Illuminated
Apr 10
New Moon
Apr 18
First Quarter
Apr 25
Full
May 2
Last Quarter
May 9
New

Hourly Weather History & Observations

Time (CDT) Temp. Heat Index Dew Point Humidity Pressure Visibility Wind Dir Wind Speed Gust Speed Precip Events Conditions
12:53 AM 75.9 °F - 69.1 °F 79% 29.87 in 10.0 mi SSE 10.4 mph - N/A   Overcast
1:53 AM 75.9 °F - 69.1 °F 79% 29.87 in 10.0 mi SSE 6.9 mph - N/A   Overcast
2:53 AM 75.0 °F - 69.1 °F 82% 29.85 in 10.0 mi SSE 9.2 mph - N/A   Overcast
3:53 AM 75.0 °F - 68.0 °F 79% 29.82 in 10.0 mi Variable 4.6 mph - N/A   Overcast
4:53 AM 75.0 °F - 68.0 °F 79% 29.81 in 10.0 mi SSE 10.4 mph - N/A   Overcast
5:53 AM 73.9 °F - 68.0 °F 82% 29.82 in 10.0 mi South 6.9 mph - N/A   Overcast
6:53 AM 73.0 °F - 68.0 °F 84% 29.83 in 10.0 mi ESE 3.5 mph - N/A   Overcast
7:53 AM 73.9 °F - 68.0 °F 82% 29.85 in 10.0 mi SSE 4.6 mph - N/A   Overcast
8:53 AM 75.0 °F - 68.0 °F 79% 29.86 in 10.0 mi SSE 11.5 mph - N/A   Overcast
9:53 AM 75.9 °F - 68.0 °F 76% 29.87 in 10.0 mi South 11.5 mph 16.1 mph N/A   Overcast
10:53 AM 77.0 °F - 68.0 °F 74% 29.88 in 10.0 mi South 8.1 mph 20.7 mph N/A   Overcast
11:53 AM 78.1 °F - 69.1 °F 74% 29.88 in 10.0 mi SSE 8.1 mph - N/A   Overcast
12:38 PM 82.4 °F 86.3 °F 69.8 °F 66% 29.85 in 10.0 mi South 15.0 mph 19.6 mph N/A   Overcast
12:53 PM 82.0 °F 85.5 °F 69.1 °F 65% 29.84 in 10.0 mi South 8.1 mph 20.7 mph N/A   Overcast
1:23 PM 82.4 °F 86.3 °F 69.8 °F 66% 29.84 in 10.0 mi South 10.4 mph 31.1 mph N/A   Overcast
1:53 PM 82.0 °F 85.5 °F 69.1 °F 65% 29.82 in 10.0 mi South 12.7 mph 23.0 mph N/A   Overcast
2:53 PM 82.0 °F 84.9 °F 68.0 °F 62% 29.80 in 10.0 mi South 8.1 mph 26.5 mph N/A   Overcast
3:53 PM 82.0 °F 84.9 °F 68.0 °F 62% 29.79 in 10.0 mi South 13.8 mph 28.8 mph N/A   Overcast
4:53 PM 82.0 °F 85.5 °F 69.1 °F 65% 29.77 in 10.0 mi South 13.8 mph 26.5 mph N/A   Mostly Cloudy
5:53 PM 81.0 °F 83.8 °F 68.0 °F 65% 29.76 in 10.0 mi SSE 17.3 mph 28.8 mph N/A   Mostly Cloudy
6:53 PM 79.0 °F - 69.1 °F 72% 29.75 in 10.0 mi South 11.5 mph 20.7 mph N/A   Partly Cloudy
7:53 PM 78.1 °F - 68.0 °F 71% 29.74 in 10.0 mi South 11.5 mph 19.6 mph N/A   Partly Cloudy
8:42 PM 77.0 °F - 68.0 °F 74% 29.75 in 10.0 mi South 16.1 mph 20.7 mph N/A   Mostly Cloudy
8:53 PM 77.0 °F - 68.0 °F 74% 29.74 in 10.0 mi South 9.2 mph 21.9 mph N/A   Mostly Cloudy
9:45 PM 77.0 °F - 69.8 °F 78% 29.76 in 10.0 mi South 8.1 mph - N/A   Mostly Cloudy
9:53 PM 77.0 °F - 69.1 °F 76% 29.76 in 10.0 mi South 11.5 mph - N/A   Mostly Cloudy
10:32 PM 77.0 °F - 69.8 °F 78% 29.76 in 10.0 mi South 10.4 mph - N/A   Overcast
10:53 PM 77.0 °F - 69.1 °F 76% 29.75 in 10.0 mi South 9.2 mph - N/A   Overcast
11:34 PM 75.2 °F - 69.8 °F 83% 29.75 in 10.0 mi South 13.8 mph 19.6 mph N/A   Overcast
11:41 PM 75.2 °F - 69.8 °F 83% 29.75 in 10.0 mi South 13.8 mph 20.7 mph N/A   Overcast
11:53 PM 75.9 °F - 69.1 °F 79% 29.75 in 10.0 mi SSW 13.8 mph 18.4 mph N/A   Overcast